When you browse on this site, cookies collect data to enhance your experience and personalize the content and advertising you see.
Visit our Privacy Policy to learn more. By continuing to use the site, you agree to this use of cookies and data.
  • In Austria
  • List of Countries
  • For 7 days
  • Water Temperature
  • Satellite Maps
  • Weather Map
  • News
  • Weather Widgets
  • user-avatar
    Login

    Hourly Weather Rybojady

    Today, 18 February, Monday

    Time Temperature Precipitation Wind Pressure Humidity
    00:00 +5°C° 0 mm 2 mps 762 mmHg 83%
    01:00 +5°C° 0 mm 2 mps 762 mmHg 84%
    02:00 +4°C° 0 mm 2 mps 761 mmHg 83%
    03:00 +4°C° 0 mm 2 mps 761 mmHg 82%
    04:00 +4°C° 0 mm 2 mps 761 mmHg 81%
    05:00 +3°C° 0 mm 2 mps 760 mmHg 81%
    06:00 +3°C° 0 mm 2 mps 760 mmHg 81%
    07:00 +3°C° 0 mm 2 mps 760 mmHg 81%
    08:00 +4°C° 0 mm 2 mps 760 mmHg 75%
    09:00 +6°C° 0 mm 2 mps 760 mmHg 70%
    10:00 +7°C° 0 mm 2 mps 760 mmHg 64%
    11:00 +8°C° 0 mm 2 mps 760 mmHg 60%
    12:00 +10°C° 0 mm 2 mps 760 mmHg 56%
    13:00 +12°C° 0 mm 2 mps 760 mmHg 51%
    14:00 +12°C° 0 mm 2 mps 759 mmHg 53%
    15:00 +12°C° 0 mm 2 mps 759 mmHg 54%
    16:00 +12°C° 0 mm 2 mps 759 mmHg 56%
    17:00 +10°C° 0 mm 2 mps 758 mmHg 60%
    18:00 +9°C° 0 mm 2 mps 758 mmHg 64%
    19:00 +7°C° 0 mm 2 mps 758 mmHg 68%
    20:00 +7°C° 0 mm 2 mps 758 mmHg 70%
    21:00 +6°C° 0 mm 2 mps 758 mmHg 71%
    22:00 +6°C° 0 mm 2 mps 757 mmHg 73%
    23:00 +5°C° 0 mm 2 mps 757 mmHg 73%

    Tomorrow, 19 February, Tuesday

    Time Temperature Precipitation Wind Pressure Humidity
    00:00 +5°C° 0 mm 2 mps 757 mmHg 74%
    01:00 +3°C° 0 mm 3 mps 757 mmHg 74%
    02:00 +3°C° 0 mm 3 mps 757 mmHg 75%
    03:00 +3°C° 0 mm 3 mps 756 mmHg 76%
    04:00 +3°C° 0 mm 3 mps 756 mmHg 77%
    05:00 +3°C° 0 mm 3 mps 756 mmHg 78%
    06:00 +3°C° 0 mm 4 mps 755 mmHg 78%
    07:00 +1°C° 0 mm 4 mps 755 mmHg 79%
    08:00 +4°C° 0 mm 4 mps 755 mmHg 74%
    09:00 +5°C° 0 mm 5 mps 755 mmHg 68%
    10:00 +7°C° 0 mm 6 mps 755 mmHg 63%
    11:00 +8°C° 0 mm 6 mps 755 mmHg 62%
    12:00 +8°C° 0 mm 6 mps 755 mmHg 62%
    13:00 +9°C° 0 mm 5 mps 755 mmHg 61%
    14:00 +9°C° 0.1 mm 5 mps 755 mmHg 66%
    15:00 +8°C° 0.1 mm 5 mps 755 mmHg 70%
    16:00 +8°C° 0.1 mm 5 mps 755 mmHg 74%
    17:00 +7°C° 0.2 mm 4 mps 755 mmHg 78%
    18:00 +7°C° 0.2 mm 4 mps 755 mmHg 81%
    19:00 +6°C° 0.2 mm 4 mps 756 mmHg 85%
    20:00 +6°C° 0 mm 4 mps 756 mmHg 83%
    21:00 +5°C° 0 mm 4 mps 756 mmHg 80%
    22:00 +5°C° 0 mm 4 mps 756 mmHg 78%
    23:00 +5°C° 0 mm 4 mps 757 mmHg 80%

    Day after tomorrow, 20 February, Wednesday

    Time Temperature Precipitation Wind Pressure Humidity
    00:00 +5°C° 0 mm 4 mps 757 mmHg 82%
    01:00 +4°C° 0 mm 4 mps 757 mmHg 84%
    02:00 +4°C° 0 mm 4 mps 757 mmHg 86%
    03:00 +4°C° 0 mm 4 mps 757 mmHg 88%
    04:00 +3°C° 0 mm 4 mps 757 mmHg 91%
    05:00 +3°C° 0 mm 4 mps 758 mmHg 91%
    06:00 +3°C° 0 mm 4 mps 758 mmHg 90%
    07:00 +4°C° 0 mm 4 mps 758 mmHg 90%
    08:00 +3°C° 0 mm 5 mps 758 mmHg 87%
    09:00 +3°C° 0 mm 5 mps 759 mmHg 83%
    10:00 +5°C° 0 mm 5 mps 759 mmHg 80%
    11:00 +5°C° 0 mm 5 mps 759 mmHg 77%
    12:00 +6°C° 0 mm 5 mps 759 mmHg 73%
    13:00 +6°C° 0 mm 5 mps 759 mmHg 70%
    14:00 +7°C° 0 mm 5 mps 759 mmHg 68%
    15:00 +7°C° 0 mm 4 mps 759 mmHg 67%
    16:00 +7°C° 0 mm 4 mps 759 mmHg 65%
    17:00 +7°C° 0 mm 4 mps 760 mmHg 69%
    18:00 +7°C° 0 mm 3 mps 760 mmHg 72%
    19:00 +7°C° 0 mm 3 mps 760 mmHg 76%
    20:00 +5°C° 0 mm 3 mps 760 mmHg 78%
    21:00 +5°C° 0 mm 3 mps 760 mmHg 81%
    22:00 +4°C° 0 mm 3 mps 760 mmHg 83%
    23:00 +4°C° 0.1 mm 3 mps 761 mmHg 83%

    21 February, Thursday

    Time Temperature Precipitation Wind Pressure Humidity
    00:00 +5°C° 0.1 mm 3 mps 761 mmHg 83%
    01:00 +5°C° 0.1 mm 4 mps 761 mmHg 82%
    02:00 +5°C° 0.2 mm 4 mps 761 mmHg 84%
    03:00 +5°C° 0.2 mm 4 mps 760 mmHg 85%
    04:00 +5°C° 0.2 mm 4 mps 760 mmHg 86%
    05:00 +5°C° 0 mm 4 mps 760 mmHg 87%
    06:00 +5°C° 0 mm 4 mps 760 mmHg 88%
    07:00 +5°C° 0 mm 4 mps 760 mmHg 89%
    08:00 +5°C° 0.2 mm 4 mps 760 mmHg 88%
    09:00 +5°C° 0.2 mm 5 mps 760 mmHg 88%
    10:00 +6°C° 0.2 mm 5 mps 760 mmHg 88%
    11:00 +6°C° 0.7 mm 4 mps 760 mmHg 88%
    12:00 +6°C° 0.7 mm 4 mps 760 mmHg 89%
    13:00 +6°C° 0.7 mm 4 mps 761 mmHg 90%
    14:00 +6°C° 0.3 mm 4 mps 761 mmHg 91%
    15:00 +7°C° 0.3 mm 3 mps 761 mmHg 92%
    16:00 +7°C° 0.3 mm 3 mps 761 mmHg 92%
    17:00 +7°C° 0.1 mm 3 mps 761 mmHg 94%
    18:00 +7°C° 0.1 mm 2 mps 762 mmHg 95%
    19:00 +7°C° 0.1 mm 2 mps 762 mmHg 97%
    20:00 +6°C° 0 mm 2 mps 763 mmHg 97%
    21:00 +6°C° 0 mm 2 mps 763 mmHg 97%
    22:00 +6°C° 0 mm 2 mps 764 mmHg 97%
    23:00 +5°C° 0 mm 2 mps 765 mmHg 97%

    22 February, Friday

    Time Temperature Precipitation Wind Pressure Humidity
    00:00 +5°C° 0 mm 2 mps 765 mmHg 97%
    01:00 +4°C° 0 mm 2 mps 766 mmHg 97%
    02:00 +4°C° 0 mm 2 mps 766 mmHg 97%
    03:00 +4°C° 0 mm 2 mps 767 mmHg 97%
    04:00 +4°C° 0 mm 2 mps 767 mmHg 97%
    05:00 +4°C° 0 mm 2 mps 768 mmHg 96%
    06:00 +4°C° 0 mm 2 mps 769 mmHg 95%
    07:00 +4°C° 0 mm 2 mps 769 mmHg 94%
    08:00 +4°C° 0 mm 2 mps 770 mmHg 92%
    09:00 +5°C° 0 mm 2 mps 770 mmHg 90%
    10:00 +5°C° 0 mm 2 mps 771 mmHg 88%
    11:00 +5°C° 0 mm 2 mps 771 mmHg 85%
    12:00 +6°C° 0 mm 2 mps 772 mmHg 83%
    13:00 +7°C° 0 mm 1 mps 772 mmHg 81%
    14:00 +7°C° 0 mm 1 mps 772 mmHg 79%
    15:00 +7°C° 0 mm 1 mps 772 mmHg 78%
    16:00 +8°C° 0 mm 1 mps 772 mmHg 77%
    17:00 +7°C° 0 mm 1 mps 773 mmHg 78%
    18:00 +7°C° 0 mm 1 mps 773 mmHg 80%
    19:00 +5°C° 0 mm 0 mps 774 mmHg 81%
    20:00 +5°C° 0 mm 0 mps 774 mmHg 82%
    21:00 +4°C° 0 mm 0 mps 774 mmHg 83%
    22:00 +4°C° 0 mm 0 mps 775 mmHg 83%
    23:00 +4°C° 0 mm 0 mps 775 mmHg 85%

    23 February, Saturday

    Time Temperature Precipitation Wind Pressure Humidity
    00:00 +3°C° 0 mm 0 mps 775 mmHg 86%
    01:00 +3°C° 0 mm 0 mps 775 mmHg 87%
    02:00 +3°C° 0 mm 0 mps 775 mmHg 88%
    03:00 +2°C° 0 mm 0 mps 775 mmHg 89%
    04:00 +2°C° 0 mm 0 mps 775 mmHg 90%
    05:00 +2°C° 0 mm 0 mps 775 mmHg 91%
    06:00 +3°C° 0 mm 1 mps 775 mmHg 91%
    07:00 +3°C° 0 mm 1 mps 775 mmHg 92%
    08:00 +4°C° 0 mm 1 mps 775 mmHg 88%
    09:00 +5°C° 0 mm 1 mps 775 mmHg 83%
    10:00 +6°C° 0 mm 2 mps 775 mmHg 79%
    11:00 +7°C° 0 mm 2 mps 775 mmHg 73%
    12:00 +8°C° 0 mm 2 mps 775 mmHg 68%
    13:00 +9°C° 0 mm 2 mps 775 mmHg 62%
    14:00 +10°C° 0 mm 2 mps 774 mmHg 63%
    15:00 +10°C° 0 mm 2 mps 774 mmHg 63%
    16:00 +10°C° 0 mm 2 mps 773 mmHg 63%
    17:00 +9°C° 0 mm 2 mps 773 mmHg 69%
    18:00 +8°C° 0 mm 2 mps 773 mmHg 75%
    19:00 +6°C° 0 mm 2 mps 773 mmHg 80%
    20:00 +6°C° 0 mm 2 mps 773 mmHg 83%
    21:00 +6°C° 0 mm 2 mps 773 mmHg 85%
    22:00 +5°C° 0 mm 2 mps 773 mmHg 87%
    23:00 +5°C° 0 mm 2 mps 773 mmHg 88%
    Show more